Current weather by "City, St" or "zip code"  
 

Current Conditions: Newton Municipal Airport - Earl Johnson Field, IA

Fair and Windy


66.0 F

Last Updated on Oct 31 2020, 1:55 pm CDT
Humidity: 37%
Wind Speed: SW 31.1 G 41.4 mph
Barometer 29.84 in
Dewpoint: 39.2 F
Visibility: 10.00 mi
Precip: --
Heat Index: NA
Wind Chill: NA
Current conditions at:

Newton Municipal Airport - Earl Johnson Field, IA (KTNU)

Lat: 41.67014 Lon: 93.01902

Local Radar Image active severe weather and emergency alerts image image weather storm and storm spotter reports image weather observation monitoring service image
Local
Radar
Active
Alerts
Storm Reports Obs
Monitoring

Sign-up For Email & Text Message Weather Alert Notification Services



Advertise Here

Observation History for Newton Municipal Airport - Earl Johnson Field, IA


Time Wind
(mph)
Vis
(mi)
Weather Precip (in) Temperature (F) Relative
Humidity
Wind
Chill
(F)
Heat
Index
(F)
Pressure
Air Dwpt altimeter
(in)
sea level
(mb)
Rmks
1:55 pm CDT SW 31.1 G 41.4 10.00 Fair and Windy -- 66.0 39.2 37% NA NA 29.84 M
12:55 pm CDT SW 27.6 G 34.5 10.00 Fair and Windy -- 64.0 39.2 40% NA NA 29.89 M
11:35 am CDT S 24.2 G 31.1 10.00 Fair and Breezy -- 61.0 39.2 45% 58 NA 29.93 M
10:55 am CDT S 16.1 10.00 Fair -- 55.0 41.0 59% 51 NA 29.95 M
9:55 am CDT S 15.0 10.00 Fair -- 46.0 41.0 82% 40 NA 29.98 M
8:55 am CDT S 16.1 10.00 Fair -- 39.0 37.4 93% 30 NA 29.99 M
7:55 am CDT S 16.1 10.00 Fair -- 36.0 35.6 100% 26 NA 30.01 M
6:55 am CDT S 16.1 10.00 Fair -- 36.0 33.8 93% 26 NA 30.03 M
5:55 am CDT SE 13.8 10.00 Fair -- 36.0 33.8 93% 27 NA 30.06 M
4:55 am CDT SE 15.0 G 23.0 10.00 Fair -- 36.0 33.8 93% 27 NA 30.07 M
3:55 am CDT SE 15.0 10.00 Fair -- 36.0 33.8 93% 27 NA 30.09 M
2:55 am CDT SE 15.0 10.00 Fair -- 36.0 32.0 87% 27 NA 30.12 M
1:55 am CDT SE 12.7 10.00 Fair -- 36.0 32.0 87% 28 NA 30.14 M
12:55 am CDT SE 13.8 10.00 Fair -- 37.0 32.0 81% 28 NA 30.16 M
11:55 pm CDT SE 12.7 10.00 Fair -- 37.0 32.0 81% 29 NA 30.18 M
10:55 pm CDT SE 11.5 10.00 Fair -- 39.0 30.2 70% 32 NA 30.19 M
9:55 pm CDT SE 12.7 10.00 Fair -- 39.0 30.2 70% 31 NA 30.20 M
8:55 pm CDT E 10.4 10.00 Fair -- 39.0 30.2 70% 32 NA 30.21 M
7:55 pm CDT SE 9.2 10.00 Fair -- 39.0 30.2 70% 33 NA 30.21 M
6:55 pm CDT SE 8.1 10.00 Fair -- 43.0 30.2 61% 38 NA 30.21 M
5:55 pm CDT SE 8.1 10.00 Fair -- 45.0 30.2 57% 41 NA 30.20 M
4:55 pm CDT SE 11.5 10.00 Fair -- 48.0 28.4 46% 43 NA 30.21 M
3:55 pm CDT E 10.4 10.00 Fair -- 50.0 28.4 43% 46 NA 30.22 M
2:55 pm CDT SE 9.2 10.00 Fair -- 48.0 28.4 46% 44 NA 30.23 M

Regional Weather Observation


Ames, Ames Municipal Airport, IA (KAMW)

Fair and Windy
65.0 F

Ankeny Regional Airport, IA (KIKV)

Fair and Breezy
66.0 F

Des Moines International Airport, IA (KDSM)

A Few Clouds and Breezy
66.0 F

Grinnell Municipal Airfield, IA (KGGI)

Fair and Windy
69.0 F

Boone Municipal, IA (KBNW)

Fair and Breezy
63.0 F

Knoxville, IA (KOXV)

Fair
68.0 F